Location: Presov
(49.0000°N, 21.2500°E)
Time: 00:04:32
(UTC+02:00)

Transit 2A Rocket - Pass Details

Date: 16 April 2021
Orbit: 594 x 908 km, 66.7° (Epoch: 05 May)

Event Time Altitude Azimuth Distance (km) Brightness Sun altitude
Rises 19:03:59 0° 269° (W) 2,890 10.1 3.1°
Reaches altitude 10° 19:07:07 10° 293° (WNW) 1,956 9.3 2.6°
Maximum altitude 19:09:45 15° 330° (NNW) 1,617 7.4 2.2°
Drops below altitude 10° 19:12:21 10° 7° (N) 1,938 7.2 1.8°
Sets 19:15:26 0° 31° (NNE) 2,850 7.8 1.3°
